Location: Newark
(54.3386°S, 169.8415°W)
Time: 01:06:20
(UTC+00:00)

Transit 2A Rocket - Visible Passes

Search period start: 17 October 2019 00:00
Search period end: 27 October 2019 00:00
Orbit: 593 x 910 km, 66.7° (Epoch: 15 October)

Date Brightness Start Highest point End Pass type
(mag) Time Alt. Az. Time Alt. Az. Time Alt. Az.
17 Oct 7.3 08:12:38 10° WSW 08:17:35 29° SSW 08:22:48 10° SE visible
17 Oct 7.3 09:57:03 10° SW 10:02:00 26° S 10:07:06 10° ESE visible
17 Oct 6.4 11:40:15 10° SW 11:46:04 45° SSE 11:51:58 10° ENE visible
17 Oct 5.3 13:23:01 10° SW 13:29:04 64° NW 13:35:06 10° NNE visible
17 Oct 6.8 15:07:09 10° WSW 15:10:42 16° WNW 15:14:13 10° NW visible
18 Oct 7.0 07:29:31 10° W 07:34:37 33° SSW 07:40:03 10° SE visible
18 Oct 7.4 09:14:07 10° SW 09:18:58 25° S 09:23:58 10° ESE visible
18 Oct 6.7 10:57:38 10° SW 11:03:13 37° SSE 11:08:54 10° E visible
18 Oct 5.3 12:40:24 10° SW 12:46:34 87° NW 12:52:42 10° NE visible
18 Oct 6.4 14:23:48 10° WSW 14:28:34 24° WNW 14:32:36 13° NNW visible
19 Oct 6.7 06:46:27 10° W 06:51:44 40° SSW 06:57:23 10° SE visible
19 Oct 7.4 08:31:06 10° WSW 08:35:55 25° S 08:40:56 10° SE visible
19 Oct 7.0 10:14:58 10° SW 10:20:18 31° SSE 10:25:44 10° E visible
19 Oct 5.6 11:57:49 10° SW 12:03:57 70° SE 12:09:12 14° NE visible
19 Oct 5.9 13:40:51 10° SW 13:46:20 35° WNW 13:48:59 24° NNW visible
20 Oct 7.3 07:47:59 10° WSW 07:52:53 27° SSW 07:58:00 10° SE visible
20 Oct 7.2 09:32:13 10° SW 09:37:18 28° SSE 09:42:32 10° ESE visible
20 Oct 6.0 11:15:15 10° SW 11:21:14 53° SE 11:26:24 14° ENE visible
20 Oct 5.5 12:58:06 10° SW 13:04:00 51° WNW 13:06:13 35° N visible
20 Oct 7.0 14:43:18 10° W 14:45:21 12° W 14:46:02 12° WNW visible
21 Oct 7.2 07:04:51 10° W 07:09:53 30° SSW 07:15:12 10° SE visible
21 Oct 7.3 08:49:21 10° SW 08:54:18 26° S 08:59:21 10° ESE visible
21 Oct 6.4 10:32:40 10° SW 10:38:26 42° SSE 10:43:59 11° E visible
21 Oct 5.3 12:15:26 10° SW 12:21:34 72° NW 12:23:50 40° NNE visible
21 Oct 6.7 13:59:16 10° WSW 14:03:18 19° WNW 14:03:40 18° WNW visible
22 Oct 7.4 08:06:24 10° SW 08:11:15 25° S 08:16:15 10° SE visible
22 Oct 6.8 09:50:02 10° SW 09:55:33 35° SSE 10:01:09 10° E visible
22 Oct 5.3 11:32:50 10° SW 11:39:00 84° SE 11:41:40 36° NE visible
22 Oct 6.2 13:16:05 10° SW 13:21:09 27° WNW 13:21:32 27° WNW visible
23 Oct 7.3 07:23:20 10° WSW 07:28:12 26° S 07:33:15 10° SE visible
23 Oct 7.0 09:07:21 10° SW 09:12:36 30° SSE 09:17:58 10° ESE visible
23 Oct 5.7 10:50:16 10° SW 10:56:21 64° SE 10:59:40 28° ENE visible
23 Oct 5.8 12:33:13 10° SW 12:38:53 40° WNW 12:39:32 39° NW visible
24 Oct 7.2 08:24:33 10° SW 08:29:37 27° SSE 08:34:47 10° ESE visible
24 Oct 6.1 10:07:41 10° SW 10:13:37 49° SE 10:17:46 20° ENE visible
24 Oct 5.4 11:50:30 10° SW 11:56:30 57° WNW 11:57:37 50° NNW visible
24 Oct 7.1 13:35:03 10° WSW 13:37:30 14° W 13:37:30 14° W visible
25 Oct 7.3 07:41:39 10° SW 07:46:34 26° S 07:51:37 10° ESE visible
25 Oct 6.5 09:25:05 10° SW 09:30:47 39° SSE 09:35:56 13° E visible
25 Oct 5.3 11:07:51 10° SW 11:14:01 80° NW 11:15:49 49° NNE visible
25 Oct 6.7 12:51:27 10° WSW 12:55:41 21° WNW 12:55:41 21° WNW visible
26 Oct 7.3 06:58:39 10° WSW 07:03:31 25° S 07:08:33 10° SE visible
26 Oct 6.8 08:42:26 10° SW 08:47:53 33° SSE 08:53:24 10° E visible
26 Oct 5.4 10:25:16 10° SW 10:31:26 77° SE 10:34:03 37° NE visible
26 Oct 6.2 12:08:24 10° SW 12:13:43 31° WNW 12:13:56 31° WNW visible
